TimePST,TemperatureF,Dew PointF,Humidity,Sea Level PressureIn,VisibilityMPH,Wind Direction,Wind SpeedMPH,Gust SpeedMPH,PrecipitationIn,Events,Conditions,WindDirDegrees,DateUTC
12:53 AM,51.1,44.1,77,30.14,8.0,Calm,Calm,-,N/A,,Clear,0,2013-02-15 08:53:00
1:53 AM,48.9,44.1,83,30.13,7.0,Calm,Calm,-,N/A,,Clear,0,2013-02-15 09:53:00
2:53 AM,48.0,43.0,83,30.12,8.0,Calm,Calm,-,N/A,,Clear,0,2013-02-15 10:53:00
4:53 AM,46.9,41.0,80,30.12,10.0,Calm,Calm,-,N/A,,Clear,0,2013-02-15 12:53:00
5:53 AM,48.0,39.9,74,30.12,10.0,SW,3.5,-,N/A,,Partly Cloudy,220,2013-02-15 13:53:00
6:53 AM,48.0,39.0,71,30.14,10.0,Calm,Calm,-,N/A,,Scattered Clouds,0,2013-02-15 14:53:00
7:53 AM,63.0,32.0,31,30.16,10.0,South,4.6,-,N/A,,Scattered Clouds,170,2013-02-15 15:53:00
8:53 AM,72.0,26.1,18,30.17,10.0,East,8.1,-,N/A,,Scattered Clouds,80,2013-02-15 16:53:00
9:53 AM,75.0,21.0,13,30.16,10.0,ENE,11.5,-,N/A,,Scattered Clouds,60,2013-02-15 17:53:00
10:53 AM,78.1,21.9,12,30.16,10.0,NE,9.2,24.2,N/A,,Scattered Clouds,50,2013-02-15 18:53:00
11:53 AM,81.0,21.0,11,30.14,10.0,NE,15.0,-,N/A,,Mostly Cloudy,50,2013-02-15 19:53:00
12:53 PM,81.0,21.0,11,30.12,10.0,NNE,9.2,19.6,N/A,,Mostly Cloudy,20,2013-02-15 20:53:00
1:53 PM,84.0,19.9,9,30.10,10.0,NE,13.8,20.7,N/A,,Mostly Cloudy,50,2013-02-15 21:53:00
2:53 PM,82.0,16.0,8,30.09,10.0,ENE,15.0,24.2,N/A,,Mostly Cloudy,60,2013-02-15 22:53:00
3:53 PM,81.0,17.1,9,30.11,10.0,NE,9.2,20.7,N/A,,Mostly Cloudy,50,2013-02-15 23:53:00
4:53 PM,71.1,42.1,35,30.12,10.0,SW,4.6,-,N/A,,Mostly Cloudy,220,2013-02-16 00:53:00
5:53 PM,68.0,43.0,40,30.14,10.0,Calm,Calm,-,N/A,,Mostly Cloudy,0,2013-02-16 01:53:00
6:53 PM,66.0,43.0,43,30.15,10.0,Calm,Calm,-,N/A,,Mostly Cloudy,0,2013-02-16 02:53:00
7:53 PM,68.0,28.0,22,30.16,10.0,SE,6.9,-,N/A,,Scattered Clouds,140,2013-02-16 03:53:00
8:53 PM,69.1,21.0,16,30.17,10.0,Calm,Calm,-,N/A,,Scattered Clouds,0,2013-02-16 04:53:00
9:53 PM,61.0,28.0,29,30.16,10.0,Calm,Calm,-,N/A,,Mostly Cloudy,0,2013-02-16 05:53:00
10:53 PM,57.9,30.0,35,30.15,10.0,Calm,Calm,-,N/A,,Mostly Cloudy,0,2013-02-16 06:53:00
11:53 PM,55.9,32.0,40,30.14,10.0,Calm,Calm,-,N/A,,Clear,0,2013-02-16 07:53:00